| time (UTC) | temp F | wind direction | speed MPH | gust MPH | rain 1hr in | rain 24hr in | rain mn in | humidity % | barometer mb |
| 20260505053113 | 65 | 159 | 0.0 | 2.0 | 0.00 | 0.00 | 0.00 | 65 | 955.2 |
| 20260505051550 | 66 | 165 | 0.0 | 3.0 | 0.00 | 0.00 | 0.00 | 64 | 955.3 |
| 20260505041545 | 68 | 265 | 0.0 | 3.0 | 0.00 | 0.00 | 0.00 | 62 | 955.7 |
| 20260505040042 | 67 | 259 | 0.0 | 7.0 | 0.00 | 0.00 | 0.00 | 63 | 955.8 |
| 20260505034550 | 67 | 207 | 0.0 | 4.0 | 0.00 | 0.00 | 0.00 | 63 | 955.7 |
| 20260505033050 | 67 | 235 | 0.0 | 3.0 | 0.00 | 0.00 | 0.00 | 63 | 955.6 |
| 20260505031542 | 67 | 209 | 0.0 | 3.0 | 0.00 | 0.00 | 0.00 | 64 | 955.7 |
| 20260505030038 | 68 | 244 | 0.0 | 2.0 | 0.00 | 0.00 | 0.00 | 63 | 955.5 |
| 20260505024537 | 68 | 246 | 0.0 | 3.0 | 0.00 | 0.00 | 0.00 | 63 | 955.3 |
| 20260505023038 | 68 | 246 | 0.0 | 3.0 | 0.00 | 0.00 | 0.00 | 62 | 955.2 |
| 20260505021535 | 68 | 234 | 0.0 | 1.0 | 0.00 | 0.00 | 0.00 | 62 | 955.0 |
| 20260505020033 | 69 | 234 | 0.0 | 1.0 | 0.00 | 0.00 | 0.00 | 61 | 954.8 |
| 20260505014531 | 69 | 229 | 0.0 | 3.0 | 0.00 | 0.00 | 0.00 | 60 | 954.7 |
| 20260505013030 | 70 | 236 | 0.0 | 3.0 | 0.00 | 0.00 | 0.00 | 59 | 954.6 |
| 20260505011546 | 70 | 240 | 0.0 | 2.0 | 0.00 | 0.00 | 0.00 | 58 | 954.5 |
| 20260505010026 | 71 | 230 | 0.0 | 3.0 | 0.00 | 0.00 | 0.00 | 57 | 954.5 |
| 20260505004524 | 72 | 155 | 0.0 | 3.0 | 0.00 | 0.00 | 0.00 | 55 | 954.3 |
| 20260505003020 | 72 | 251 | 0.0 | 2.0 | 0.00 | 0.00 | 0.00 | 53 | 954.5 |
| 20260505001519 | 73 | 267 | 0.0 | 3.0 | 0.00 | 0.00 | 0.00 | 51 | 954.6 |
| 20260505000019 | 74 | 267 | 0.0 | 3.0 | 0.00 | 0.00 | 0.00 | 50 | 954.7 |
| 20260504234517 | 75 | 250 | 1.0 | 7.0 | 0.00 | 0.00 | 0.00 | 47 | 954.9 |
| 20260504233015 | 75 | 242 | 1.0 | 7.0 | 0.00 | 0.00 | 0.00 | 47 | 954.9 |
| 20260504231515 | 76 | 167 | 1.0 | 7.0 | 0.00 | 0.00 | 0.00 | 45 | 955.1 |
| 20260504230013 | 76 | 257 | 4.0 | 15.0 | 0.00 | 0.00 | 0.00 | 45 | 955.2 |
| 20260504224514 | 77 | 250 | 0.0 | 8.0 | 0.00 | 0.00 | 0.00 | 45 | 955.3 |
| 20260504223011 | 77 | 248 | 2.0 | 13.0 | 0.00 | 0.00 | 0.00 | 45 | 955.3 |
| 20260504221510 | 77 | 266 | 4.0 | 8.0 | 0.00 | 0.00 | 0.00 | 47 | 955.1 |
| 20260504220008 | 76 | 218 | 0.0 | 1.0 | 0.00 | 0.00 | 0.00 | 51 | 955.5 |
| 20260504214508 | 76 | 217 | 0.0 | 5.0 | 0.00 | 0.00 | 0.00 | 50 | 955.5 |
| 20260504213004 | 76 | 249 | 0.0 | 7.0 | 0.00 | 0.00 | 0.00 | 50 | 955.8 |
| 20260504211503 | 77 | 222 | 1.0 | 6.0 | 0.00 | 0.00 | 0.00 | 48 | 956.0 |
| 20260504210003 | 78 | 244 | 0.0 | 10.0 | 0.00 | 0.00 | 0.00 | 46 | 956.1 |
| 20260504204617 | 79 | 312 | 0.0 | 3.0 | 0.00 | 0.00 | 0.00 | 49 | 956.3 |
| 20260504203156 | 77 | 263 | 1.0 | 6.0 | 0.00 | 0.00 | 0.00 | 49 | 956.5 |
| 20260504201551 | 76 | 224 | 2.0 | 8.0 | 0.00 | 0.00 | 0.00 | 48 | 956.7 |
| 20260504200049 | 76 | 355 | 0.0 | 8.0 | 0.00 | 0.00 | 0.00 | 51 | 957.0 |
| 20260504194550 | 76 | 248 | 1.0 | 11.0 | 0.00 | 0.00 | 0.00 | 52 | 957.4 |
| 20260504193043 | 76 | 239 | 2.0 | 8.0 | 0.00 | 0.00 | 0.00 | 52 | 957.6 |
| 20260504191535 | 74 | 291 | 2.0 | 7.0 | 0.00 | 0.00 | 0.00 | 55 | 957.8 |
| 20260504180021 | 71 | 235 | 1.0 | 7.0 | 0.00 | 0.00 | 0.00 | 59 | 957.8 |
| 20260504174521 | 71 | 113 | 0.0 | 8.0 | 0.00 | 0.00 | 0.00 | 58 | 957.9 |
| 20260504173021 | 70 | 137 | 1.0 | 8.0 | 0.00 | 0.00 | 0.00 | 60 | 957.8 |
| 20260504171525 | 70 | 32 | 1.0 | 8.0 | 0.00 | 0.00 | 0.00 | 58 | 957.8 |
| 20260504081508 | 51 | 227 | 0.0 | 1.0 | 0.00 | 0.00 | 0.00 | 70 | 960.5 |